This is the latest recevied weather packets stored in our database for station/object NI4CE-10. If no packets are shown the sender has not sent any weather packets the latest 10 day(s).
| Time | Temp. | Humidity | Pressure | Rain* | Wind** | Luminosity | Snow |
|---|---|---|---|---|---|---|---|
| 1777904798 | 25° C | 100% | 1019 hPa | 0 mm | - | - | - |
| 1777904754 | 26.67° C | 100% | 1019 hPa | 0 mm | - | - | - |
| 1777904454 | 25° C | 100% | 1019 hPa | 0 mm | - | - | - |
| 1777904154 | 25° C | 100% | 1019 hPa | 0 mm | - | - | - |
| 1777903854 | 25.56° C | 100% | 1019 hPa | 0 mm | - | - | - |
| 1777903615 | 25° C | 100% | 1019 hPa | 0 mm | - | - | - |
| 1777903554 | 24.44° C | 100% | 1019 hPa | 0 mm | - | - | - |
| 1777903294 | 24.44° C | 100% | 1018.8 hPa | 0 mm | - | - | - |
| 1777903254 | 25° C | 100% | 1019 hPa | 0 mm | - | - | - |
| 1777902954 | 24.44° C | 100% | 1018.8 hPa | 0 mm | - | - | - |
| 1777902654 | 25.56° C | 100% | 1018.8 hPa | 0 mm | - | - | - |
| 1777902354 | 23.89° C | 100% | 1019 hPa | 0 mm | - | - | - |
| 1777902218 | 24.44° C | 100% | 1018.8 hPa | 0 mm | - | - | - |
| 1777902054 | 24.44° C | 100% | 1018.9 hPa | 0 mm | - | - | - |
| 1777901819 | 24.44° C | 100% | 1018.8 hPa | 0 mm | - | - | - |
| 1777901754 | 24.44° C | 100% | 1018.8 hPa | 0 mm | - | - | - |
| 1777901696 | 24.44° C | 100% | 1018.8 hPa | 0 mm | - | - | - |
| 1777901688 | 23.89° C | 100% | 1018.7 hPa | 0 mm | - | - | - |
| 1777901454 | 24.44° C | 100% | 1018.8 hPa | 0 mm | - | - | - |
| 1777901411 | 23.89° C | 100% | 1018.7 hPa | 0 mm | - | - | - |
| 1777901154 | 23.89° C | 100% | 1018.7 hPa | 0 mm | - | - | - |
| 1777901111 | 23.89° C | 100% | 1018.6 hPa | 0 mm | - | - | - |
| 1777900854 | 23.89° C | 100% | 1018.6 hPa | 0 mm | - | - | - |
| 1777900554 | 23.89° C | 100% | 1018.5 hPa | 0 mm | - | - | - |
| 1777900421 | 23.33° C | 100% | 1018.6 hPa | 0 mm | - | - | - |
* Rain latest hour (hover to see other rain measurements)
** Current wind speed in m/s (hover to see current wind gust speed)